Location: Bonneuil
(48.9745°N, 2.4315°E)
Time: 03:48:48
(UTC+00:00)

Daily predictions for brighter satellites

Satellite Brightness Start Highest point End
(mag) Time Altitude Azimuth Time Altitude Azimuth Time Altitude Azimuth
ATLAS 2AS CENTAUR R/B 4.5 00:01:37 10° NW 00:04:13 24° NW 00:04:13 24° NW
SL-16 R/B 3.7 01:09:58 37° NNE 01:09:58 37° NNE 01:13:51 10° N
Cosmos 2237 Rocket 4.3 01:10:41 20° N 01:10:41 20° N 01:13:05 10° NNE
ADEOS II 4.1 01:14:45 10° NNE 01:17:15 23° NE 01:17:15 23° NE
SL-16 R/B 3.8 01:48:08 27° N 01:48:08 27° N 01:51:17 10° NNE
CZ-2D R/B 3.5 01:47:19 10° NNE 01:50:21 35° NNE 01:50:21 35° NNE
Resurs 1-4 Rocket 3.5 01:58:55 10° N 02:01:48 33° N 02:01:48 33° N
Cosmos 2366 rocket 4.5 02:23:31 48° NNW 02:23:31 48° NNW 02:28:11 10° N
Cosmos 1943 4.0 02:23:44 44° N 02:23:44 44° N 02:27:55 10° NNE
Cosmos 1603 4.3 02:26:52 49° N 02:26:52 49° N 02:31:17 10° NNE
IDEFIX/ARIANE 42P 3.3 02:31:58 10° N 02:35:50 47° NNW 02:35:50 47° NNW
SL-08 R/B 4.3 02:39:14 87° WNW 02:39:14 87° WNW 02:45:23 10° N
ATLAS 5 CENTAUR R/B 3.5 02:40:34 22° N 02:40:34 22° N 02:43:07 10° NNE
Cosmos 2239 Rocket 4.4 02:41:02 68° SSE 02:41:45 77° E 02:47:57 10° NNE
Cosmos 2221 4.2 02:44:53 27° N 02:44:53 27° N 02:46:55 10° N
CZ-2C R/B 4.1 02:39:03 10° NNE 02:43:30 30° E 02:45:49 21° SE
Cosmos 2251 Rocket 4.1 02:38:28 10° NNW 02:43:41 56° ENE 02:48:49 10° SE
Cosmos 1000 Rocket 4.3 02:37:45 10° N 02:44:01 85° W 02:44:15 82° SSW
Cosmos 1821 Rocket 3.8 02:45:36 79° W 02:45:39 79° W 02:51:59 10° N
MSX 3.8 02:44:32 10° N 02:49:57 66° NW 02:49:57 66° NW
SL-16 R/B 4.1 02:55:04 20° NW 02:55:04 20° NW 02:57:11 10° NNW
Cosmos 2123 Rocket 4.1 02:46:38 10° N 02:52:53 75° E 02:57:13 21° SSE
FENGYUN 3A 4.1 02:48:20 10° NNE 02:53:39 56° E 02:55:11 41° SSE
ADEOS II 2.9 02:54:16 10° N 02:58:10 38° NW 02:58:10 38° NW
Cosmos 1140 Rocket 4.1 02:55:56 10° NNW 03:01:02 55° ENE 03:06:08 10° SE
Sich 1 3.7 02:58:21 10° N 03:02:34 51° ENE 03:04:07 33° SE
Cosmos 1697 Rocket 4.0 02:57:29 10° NNW 03:02:47 39° NE 03:08:03 10° ESE
Cosmos 44 3.7 03:03:53 48° N 03:03:53 48° N 03:07:20 10° NNE
Cosmos 1782 4.0 03:11:06 34° N 03:11:06 34° N 03:13:31 10° N
IRS-1D 3.4 03:04:46 10° NNE 03:10:06 75° WNW 03:10:32 70° WSW
Cosmos 1934 Rocket 4.0 03:08:36 36° S 03:11:23 85° E 03:17:46 10° N
CBERS-1 4.1 03:06:48 10° NNE 03:11:56 73° ESE 03:13:28 45° S
Cosmos 1605 Rocket 4.5 03:08:56 13° SSE 03:14:14 57° E 03:20:11 10° NNE
CZ-2C R/B 3.3 03:18:47 10° SE 03:23:49 53° ENE 03:28:58 10° N
Cosmos 1932 4.5 03:25:13 47° WSW 03:27:04 70° NW 03:33:31 10° NE
Cosmos 1812 4.0 03:31:34 29° NNW 03:31:34 29° NNW 03:33:50 10° N
Cosmos 1340 4.3 03:32:42 22° NNW 03:32:42 22° NNW 03:34:27 10° N
PAYLOAD A 3.9 03:27:11 10° NNE 03:31:57 75° ESE 03:34:35 27° S
CZ-2D R/B 3.9 03:28:43 10° NNW 03:31:39 17° NW 03:31:39 17° NW
SL-16 R/B 4.5 03:30:22 10° NW 03:32:03 11° NNW 03:33:43 10° N
Cosmos 407 Rocket 3.5 03:28:17 10° NNW 03:33:38 88° ENE 03:38:58 10° SSE
Tiangong 0.6 03:38:03 12° SSE 03:38:03 12° SSE 03:38:22 10° SE
BREEZE-M DEB (TANK) 1.8 03:41:11 71° SE 03:41:11 71° SE 03:45:19 10° ESE
Cosmos 1980 Rocket 3.6 03:36:03 10° NNW 03:41:18 39° NE 03:46:32 10° ESE
Lacrosse 4 Rocket 4.4 03:40:06 10° N 03:41:46 12° NNE 03:43:27 10° NE
Meteor 1-14 Rocket 4.2 03:35:59 10° NNW 03:41:56 69° W 03:47:43 10° S
EO 1 Del DPAF 4.2 03:38:49 10° N 03:40:49 29° NNW 03:40:49 29° NNW
Cosmos 1656 3.6 03:36:24 10° NNW 03:42:02 63° WSW 03:47:38 10° SSE
ALOS 2.2 03:37:59 10° N 03:42:38 68° WNW 03:44:08 41° SW
X-37B 2.7 03:43:15 16° SE 03:43:15 16° SE 03:44:46 10° ESE
Resurs 1-4 Rocket 4.1 03:40:43 10° NNW 03:42:52 13° NW 03:42:52 13° NW
USA 307 4.4 03:51:03 18° S 03:53:12 29° SE 03:56:48 10° ENE
Helios 1B rocket 2.3 03:49:26 10° NNE 03:53:30 83° WNW 03:55:38 27° SSW
Meteor 1-5 Rocket 4.4 03:49:02 10° NNW 03:54:09 43° W 03:57:32 19° SSW
Cosmos 1805 Rocket 3.9 03:50:01 10° NNW 03:54:10 40° W 03:54:18 40° W
ARIANE 5 R/B 2.6 03:50:07 10° NNE 03:55:13 76° ESE 04:00:13 10° S
Meteor 1-11 Rocket 4.0 03:52:48 10° N 03:58:49 77° ENE 04:04:46 10° SSE
SL-08 R/B 3.3 03:57:36 10° SSE 04:02:14 82° ENE 04:06:59 10° NNW
Cosmos 1633 Rocket 3.0 03:59:17 10° N 04:03:40 88° E 04:08:00 10° S
USA 306 3.8 04:05:17 21° SSW 04:07:39 41° SE 04:11:33 10° ENE
Cosmos 1484 Rocket 2.9 04:03:57 10° NNE 04:07:57 76° ESE 04:11:55 10° S
Cosmos 676 Rocket 4.2 04:04:51 10° NNW 04:10:05 75° ENE 04:15:19 10° SSE
Cosmos 1666 Rocket 3.5 04:08:59 10° NNW 04:13:24 62° W 04:17:49 10° S
Cosmos 2098 Rocket 1.8 04:10:32 10° NNW 04:13:26 71° W 04:16:20 10° S
ERS-1 4.5 04:09:10 10° NNE 04:14:22 81° WNW 04:19:34 10° SSW
Cosmos 2360 4.1 04:09:12 10° NNW 04:14:53 71° WSW 04:20:33 10° SSE
IDEFIX/ARIANE 42P 4.5 04:13:39 10° NNW 04:15:48 13° NW 04:16:37 12° WNW
Cosmos 1624 Rocket 4.2 04:12:01 10° SSW 04:17:17 76° ESE 04:22:38 10° NNE
Meteor 1-4 Rocket 2.6 04:14:25 10° N 04:18:02 81° E 04:21:40 10° SSE
Cosmos 1153 Rocket 4.4 04:12:06 10° SSW 04:18:15 80° W 04:24:29 10° N
CZ-2C R/B 3.9 04:13:14 10° NNE 04:19:00 60° E 04:24:35 10° S
Cosmos 2100 Rocket 4.3 04:15:16 10° S 04:21:22 72° E 04:27:30 10° NNE
CZ-2C R/B 2.9 04:17:04 10° N 04:21:48 40° WNW 04:25:10 17° SW
USA 234 3.7 04:15:21 10° ENE 04:21:48 58° SE 04:28:14 10° SW
Cosmos 1328 Rocket 3.5 04:17:35 10° S 04:21:57 85° W 04:26:22 10° N
BREEZE-M DEB (TANK) 3.2 04:20:00 19° W 04:23:30 50° SSW 04:26:03 10° SE
Cosmos 1833 Rocket 2.6 04:19:51 10° SSW 04:25:30 81° WNW 04:31:12 10° NNE
Cosmos 2251 Rocket 4.5 04:21:26 10° NW 04:25:34 24° W 04:29:39 10° SSW
ATLAS 5 CENTAUR R/B 3.9 04:23:12 10° NW 04:25:36 14° N 04:28:12 10° NNE
CZ-2C R/B 1.5 04:25:38 10° N 04:27:43 85° E 04:31:04 10° S
USA 308 3.6 04:24:31 14° SW 04:27:47 48° SE 04:31:48 10° ENE
Envisat 3.0 04:22:48 10° NNE 04:27:55 86° ESE 04:33:00 10° SSW
Cosmos 1515 3.6 04:24:24 10° SSW 04:28:05 61° WNW 04:31:48 10° N
ERBS 1.8 04:28:10 27° WSW 04:29:35 84° NW 04:32:30 10° NE
Cosmos 1371 Rocket 4.0 04:24:52 10° SSW 04:30:10 81° WNW 04:35:28 10° NNE
IRS-1C 4.3 04:25:38 10° N 04:30:48 51° WNW 04:35:55 10° SW
Aureole 3 4.0 04:28:39 18° SW 04:30:52 31° WNW 04:34:01 10° NNW
Cosmos 1536 2.8 04:27:03 10° NNW 04:31:05 64° W 04:35:04 10° S
PSLV R/B 4.3 04:28:08 10° NNE 04:32:25 55° E 04:36:39 10° S
COSMOS 2406 3.6 04:28:58 10° SSW 04:34:35 67° ESE 04:40:14 10° NNE
Cosmos 2082 Rocket 3.0 04:30:26 10° S 04:35:52 53° ESE 04:41:20 10° NE
YAOGAN 6 2.6 04:34:58 10° N 04:38:33 57° WNW 04:42:07 10° SSW
Sich 1 4.5 04:36:57 10° NW 04:39:47 17° W 04:40:54 16° WSW
Cosmos 1515 Rocket 3.7 04:35:34 10° S 04:39:58 78° E 04:44:27 10° NNE
Cosmos 1151 Rocket 3.6 04:36:50 11° SW 04:40:29 34° WNW 04:44:24 10° N
BREEZE M DEB (TANK) 4.5 04:22:03 15° W 04:41:00 87° N 04:46:02 10° E
Cosmos 1140 Rocket 4.5 04:38:23 10° NW 04:42:27 24° W 04:46:30 10° SSW
Cosmos 1470 Rocket 3.5 04:40:07 10° NNW 04:44:23 59° W 04:48:38 10° S
Cosmos 1697 Rocket 3.0 04:41:31 10° NW 04:46:48 42° WSW 04:52:04 10° S
Cosmos 1356 4.3 04:49:23 11° SW 04:51:56 26° WNW 04:54:44 10° NNW
Cosmos 1346 Rocket 3.3 04:48:39 10° SW 04:52:24 39° WNW 04:56:10 10° N
BREEZE M DEB (TANK) 4.0 04:41:06 10° SW 04:54:04 58° SSE 04:57:50 10° E
ATLAS CENTAUR R/B 2.0 04:49:35 10° SSW 04:54:25 74° SE 04:59:17 10° NE
Cosmos 1850 Rocket 4.4 04:49:09 10° NNW 04:54:29 72° ENE 04:59:49 10° SSE
Cosmos 1743 3.4 04:52:50 10° NNW 04:56:12 31° W 04:59:33 10° SSW
USA 305 2.8 04:53:50 10° WSW 04:57:58 87° SSE 05:02:08 10° ENE
CZ-2C R/B 2.6 04:55:16 10° NNE 04:59:00 80° WNW 05:02:48 10° SSW
BREEZE-M DEB (TANK) 1.6 04:56:15 11° W 04:59:01 73° SSW 05:01:23 10° ESE
Tsikada Rocket 4.4 04:53:02 10° N 04:59:24 72° E 05:05:39 10° SSE
Cosmos 2056 Rocket 3.7 04:55:48 10° SW 05:00:47 50° WNW 05:05:47 10° NNE
Cosmos 1441 Rocket 3.6 05:00:00 10° SW 05:03:29 38° WNW 05:07:00 10° N
Meteor 1-27 Rocket 3.9 04:58:09 10° SSW 05:03:46 55° WNW 05:09:33 10° N
Cosmos 1954 Rocket 4.5 04:59:10 10° NW 05:03:57 38° WSW 05:08:45 10° S
CZ-2C R/B 3.6 05:00:14 10° SW 05:04:26 25° W 05:08:44 10° NW
Cosmos 1802 Rocket 4.0 04:59:57 10° SSW 05:06:21 77° W 05:12:43 10° N
Cosmos 1939 Rocket 4.4 05:05:25 10° NNE 05:09:19 43° E 05:13:09 10° S
Cosmos 1459 Rocket 4.1 05:04:58 10° SSW 05:11:12 58° WNW 05:17:31 10° N
Spot 4 Rocket 4.3 05:06:33 10° N 05:11:31 50° WNW 05:16:27 10° SW
COSMO-SKYMED 1 2.6 05:08:04 10° S 05:12:23 68° WSW 05:16:44 10° NNW
Cosmos 1420 Rocket 4.3 05:08:00 10° SW 05:13:04 47° WNW 05:18:06 10° NNE
CENTAUR R/B 3.4 05:07:49 10° SSW 05:13:26 54° ESE 05:20:14 10° NE
Meteor 1-29 3.9 05:10:47 10° N 05:13:35 27° WNW 05:16:24 10° SW
Cosmos 2322 Rocket 3.7 05:08:36 10° NNW 05:13:59 41° NE 05:19:18 10° ESE
